Regional Weather Roundup
Issued by NWS

Home | Current Version | Previous Version | Text Only | Print | Product List | Glossary On
Versions: 1 2 3 4 5 6 7 8 9 10 11 12 13 14 15 16 17 18 19 20 21 22 23 24 25 26 27 28 29 30 31 32 33 34 35 36 37 38 39 40 41 42 43 44 45 46 47 48 49 50
000
ASUS44 KLIX 202313
RWRLA
LOUISIANA WEATHER ROUNDUP
NATIONAL WEATHER SERVICE NEW ORLEANS LA
500 PM CST SAT JAN 20 2018

NOTE: "FAIR" INDICATES FEW OR NO CLOUDS BELOW 12,000 FEET WITH NO
      SIGNIFICANT WEATHER AND/OR OBSTRUCTIONS TO VISIBILITY.
      SKY/WX - SKY CONDITION AND SIGNIFICANT WEATHER.
      TMP - AIR TEMPERATURE.    DP   - DEWPOINT TEMPERATURE.
      RH  - RELATIVE HUMIDITY.  PRES - PRESSURE.
      HX  - HEAT INDEX.         WCI  - WIND CHILL INDEX.

*  THESE STATIONS ARE NOT NWS OR FAA STATIONS AND ARE NOT UNDER
   NWS QUALITY CONTROL.

LAZ040-048-061>063-065-066-069-210000-
SOUTHEAST LOUISIANA

CITY           SKY/WX    TMP DP  RH WIND       PRES   REMARKS
N.O. INTL ARPT MOCLDY    63  55  75 SE16      30.17F
N.O. LAKEFRONT CLOUDY    58  48  69 E13       30.21S
N.O. DOWNTOWN* LGT RAIN  60  50  69 NE8       30.20F
RESERVE*       CLOUDY    61  53  76 NE3       30.20R
SLIDELL        CLOUDY    62  45  53 SE7       30.22S
BATON ROUGE    CLOUDY    61  54  77 E9        30.17S
BOOTHVILLE     MOCLDY    61  52  72 E5        30.23R
BELLE CHASSE   MOCLDY    61  53  75 E12       30.20F
BOGALUSA*      FAIR      64  45  50 S9        30.21F
GALLIANO*      FAIR      60  54  82 E5        30.18R
NEW ROADS*     CLOUDY    60  60  97 E5        30.16S
GONZALES*      CLOUDY    60  56  87 SE3       30.17F
HAMMOND*       CLOUDY    59  48  67 S10       30.19S
HOUMA*         PTCLDY    63  57  82 E9        30.17S
PORT FOURCHON* PTCLDY    63  59  88 E6G13     30.18R

$$

LAZ041-044-053-054-210000-
SOUTHWEST LOUISIANA

CITY           SKY/WX    TMP DP  RH WIND       PRES   REMARKS
LAKE CHARLES   MOCLDY    67  60  78 S14       30.09S
LAFAYETTE      FAIR      67  60  78 VRB6      30.14S
PATTERSON      FAIR      64  60  87 E10       30.17R
SALT POINT       N/A     65  59  81 SE7       30.14R
NEW IBERIA     FAIR      66  58  75 SE10      30.14S
CHENAULT AIRPK MOCLDY    66  59  77 E16       30.10S

$$

LAZ027-028-210000-
CENTRAL LOUISIANA

CITY           SKY/WX    TMP DP  RH WIND       PRES   REMARKS
FORT POLK      CLOUDY    66  59  78 SE9       30.07S
ALEXANDRIA INT MOCLDY    63  58  83 SE9       30.09F
ALEXANDRIA     CLOUDY    64  58  80 SE7       30.11S

$$

LAZ001-002-210000-
NORTHWEST LOUISIANA

CITY           SKY/WX    TMP DP  RH WIND       PRES   REMARKS
SHREVEPORT     PTCLDY    67  59  75 S16       30.02S
BARKSDALE AFB  CLOUDY    66  58  75 S10       30.02F
DTN SHREVEPORT MOCLDY    67  58  72 S14       30.02F

$$

LAZ014-016-210000-
NORTHEAST LOUISIANA

CITY           SKY/WX    TMP DP  RH WIND       PRES   REMARKS
MONROE         CLOUDY    63  56  78 S10G21    30.12R
TALLULAH       CLOUDY    62  57  83 S7        30.15S

$$




USA.gov is the U.S. government's official web portal to all federal, state and local government web resources and services.